Flag for Turkey Weather past 2 weeks in Mersin, Turkey

Now
59 °F

Passing clouds.


Feels Like: 59 °F
Forecast: 60 / 86 °F
Wind: 2 mph from North

Location: Adana / Sakirpasa

Current Time: Oct 1, 2014 at 7:56:58 AM

Latest Report: Oct 1, 2014 at 7:20 AM


Visibility: N/A

Pressure: 30.01 "Hg

Humidity: 68%

Dew point: 48 °F

Location of MersinLocation

Historic Weather in Mersin — Graph

°F

Mersin temperature yesterday

Maximum temperature yesterday: 84 °F (at 1:50 PM)
Minimum temperature yesterday: 64 °F (at 6:50 AM)
Average temperature yesterday: 74 °F

Past Weeks' High & Low Weather Summary

 TemperatureHumidityPressure
High91 °F (Sep 25, 12:20 PM)94% (Sep 18, 4:50 PM)30.04 "Hg (Sep 18, 4:50 PM)
Low55 °F (Oct 1, 6:20 AM)12% (Sep 26, 1:20 PM)29.68 "Hg (Sep 28, 1:20 AM)
Average76 °F60%29.84 "Hg
* Reported Sep 16 6:20 AM — Oct 1 6:50 AM, Mersin, Weather by CustomWeather, © 2014

Note: Actual official high and low records may vary slightly from our data, if they occured in-between our weather recording intervals... More about our weather records

Advertising

Mersin weather history for previous 24 hours

 ConditionsComfort  
Time TempWeatherWind HumidityBarometerVisibility
6:50 AM
Oct 1
57 °FPassing clouds.1 mph67%30.01 "HgN/A
6:20 AM55 °FPassing clouds.5 mph77%30.01 "HgN/A
5:50 AM61 °FPassing clouds.6 mph63%30.01 "HgN/A
5:20 AM63 °FPassing clouds.6 mph56%30.01 "HgN/A
4:50 AM61 °FPassing clouds.6 mph55%30.01 "HgN/A
4:20 AM63 °FPassing clouds.8 mph52%30.01 "HgN/A
3:50 AM63 °FPassing clouds.7 mph52%30.01 "HgN/A
3:20 AM64 °FPassing clouds.5 mph46%30.01 "HgN/A
2:50 AM66 °FPassing clouds.7 mph40%30.01 "HgN/A
2:20 AM68 °FPassing clouds.7 mph38%30.01 "HgN/A
1:50 AM68 °FPassing clouds.7 mph38%30.01 "HgN/A
1:20 AM68 °FPassing clouds.6 mph35%30.01 "HgN/A
12:50 AM70 °FPassing clouds.9 mph31%30.01 "HgN/A
12:20 AM70 °FPassing clouds.8 mph33%30.01 "HgN/A
11:50 PM
Sep 30
72 °FPassing clouds.8 mph29%30.01 "HgN/A
11:20 PM72 °FPassing clouds.9 mph31%30.01 "HgN/A
10:50 PM72 °FPassing clouds.9 mph31%30.01 "HgN/A
10:20 PM72 °FPassing clouds.9 mph31%30.01 "HgN/A
9:50 PM72 °FPassing clouds.9 mph31%30.04 "HgN/A
9:20 PM73 °FPassing clouds.9 mph27%30.04 "HgN/A
8:50 PM73 °FPassing clouds.13 mph27%30.01 "HgN/A
8:20 PM75 °FPassing clouds.12 mph24%30.01 "HgN/A
7:50 PM75 °FPassing clouds.10 mph24%30.01 "HgN/A
7:20 PM75 °FPassing clouds.13 mph24%30.01 "HgN/A
6:50 PM77 °FPassing clouds.15 mph19%29.98 "HgN/A
6:20 PM77 °FPassing clouds.13 mph22%29.98 "HgN/A
5:50 PM77 °FPassing clouds.15 mph22%29.98 "HgN/A
5:20 PM81 °FPassing clouds.17 mph18%29.98 "HgN/A
4:50 PM82 °FPassing clouds.15 mph15%29.98 "HgN/A
4:20 PM84 °FPassing clouds.9 mph15%29.95 "HgN/A
3:50 PM84 °FPassing clouds.9 mph13%29.98 "HgN/A
3:20 PM84 °FPassing clouds.6 mph12%29.98 "HgN/A
2:50 PM84 °FPassing clouds.5 mph12%29.98 "HgN/A
2:20 PM84 °FPassing clouds.10 mph13%29.98 "HgN/A
1:50 PM84 °FPassing clouds.6 mph12%29.98 "HgN/A
1:20 PM82 °FPassing clouds.7 mph12%29.98 "HgN/A
12:50 PM82 °FPassing clouds.5 mph12%30.01 "HgN/A
12:20 PM82 °FPassing clouds.9 mph12%30.01 "HgN/A
11:50 AM81 °FPassing clouds.5 mph14%30.01 "HgN/A
11:20 AM81 °FPassing clouds.9 mph14%30.01 "HgN/A
10:50 AM77 °FPassing clouds.12 mph15%30.01 "HgN/A
10:20 AM77 °FPassing clouds.12 mph17%30.01 "HgN/A
9:50 AM77 °FPassing clouds.9 mph19%30.01 "HgN/A
9:20 AM73 °FPassing clouds.9 mph23%30.01 "HgN/A
8:50 AM72 °FPassing clouds.8 mph25%30.01 "HgN/A
8:20 AM70 °FPassing clouds.6 mph29%30.01 "HgN/A
7:50 AM70 °FPassing clouds.5 mph27%30.01 "HgN/A
7:20 AM66 °FPassing clouds.5 mph30%30.01 "HgN/A
Weather by CustomWeather, © 2014

See weather overviewHow to use our weather pages